St. Johns, AZ

6:09 PM MST on June 24, 2017 (GMT -0700)
Saint Johns Industrial

Weather History for KSJN - January, 2013

Change the Weather History Date:

Thursday, January 10, 2013

  Actual Average (KLSB) Record (KLSB)
Temperature  
Mean Temperature 34 °F -  
Max Temperature 45 °F 57 °F 62 °F (2013)
Min Temperature 24 °F 25 °F 21 °F (2014)
Degree Days  
Heating Degree Days 30    
Moisture  
Dew Point 17 °F    
Average Humidity 53    
Maximum Humidity 78    
Minimum Humidity 20    
Precipitation  
Precipitation 0.04 in - - ()
Sea Level Pressure  
Sea Level Pressure 29.86 in    
Wind  
Wind Speed 7 mph (SW)    
Max Wind Speed 28 mph    
Max Gust Speed 36 mph    
Visibility 10 miles    
Events Snow    
Averages and records for this station are not official NWS values.
T = Trace of Precipitation, MM = Missing Value Source: NWS Daily Summary

Daily Weather History Graph

Daily Weather History Graph

Search for Another Location

Airport or City:

Trip Planner

Search our weather history database for the weather conditions in past years. The results will help you decide how hot, cold, wet, or windy it might be!

Date:

Astronomy

Jan. 10, 2013 Rise Set
Actual Time 7:24 AM MST 5:25 PM MST
Civil Twilight 6:57 AM MST 5:53 PM MST
Nautical Twilight 6:26 AM MST 6:24 PM MST
Astronomical Twilight 5:55 AM MST 6:54 PM MST
Moon 6:07 AM MST (1/10) 4:36 PM MST (1/10)
Length of Visible Light 10h 56m
Length of Day
10h 01m
Waning Crescent, 2% of the Moon is Illuminated
Jan 10
Waning Crescent
Jan 11
New
Jan 18
First Quarter
Jan 26
Full
Feb 3
Last Quarter

Hourly Weather History & Observations

Time (MST) Temp. Windchill Dew Point Humidity Pressure Visibility Wind Dir Wind Speed Gust Speed Precip Events Conditions
12:54 AM 18.0 °F 11.1 °F 12.0 °F 78% 30.08 in 10.0 mi West 4.6 mph - N/A   Clear
1:54 AM 21.9 °F - 12.9 °F 68% 30.04 in 10.0 mi Calm Calm - N/A   Clear
2:54 AM 19.0 °F - 12.0 °F 74% 30.03 in 10.0 mi Calm Calm - N/A   Clear
3:54 AM 21.0 °F - 12.0 °F 68% 29.99 in 10.0 mi Calm Calm - N/A   Clear
4:54 AM 21.0 °F - 12.9 °F 71% 29.97 in 9.0 mi Calm Calm - N/A   Clear
5:54 AM 18.0 °F 11.1 °F 12.0 °F 78% 29.99 in 10.0 mi SE 4.6 mph - N/A   Clear
6:54 AM 19.9 °F 14.9 °F 12.9 °F 74% 30.02 in 10.0 mi WSW 3.5 mph - N/A   Clear
7:54 AM 19.9 °F - 12.9 °F 74% 30.06 in 10.0 mi Calm Calm - N/A   Clear
8:54 AM 25.0 °F - 17.1 °F 72% 30.01 in 10.0 mi Calm Calm - N/A   Clear
9:54 AM 30.0 °F - 17.1 °F 59% 30.00 in 10.0 mi Calm Calm - N/A   Clear
10:54 AM 33.1 °F - 18.0 °F 54% 29.96 in 9.0 mi Calm Calm - N/A   Clear
11:54 AM 35.1 °F 30.1 °F 19.9 °F 54% 29.91 in 10.0 mi NW 5.8 mph - N/A   Clear
12:54 PM 37.9 °F 32.7 °F 21.9 °F 53% 29.87 in 10.0 mi NE 6.9 mph - N/A   Clear
1:54 PM 53.1 °F - 14.0 °F 21% 29.78 in 10.0 mi WSW 27.6 mph 35.7 mph N/A   Clear
2:05 PM 53.6 °F - 14.0 °F 21% 29.84 in 10.0 mi SW 19.6 mph 35.7 mph N/A   Clear
2:54 PM 54.0 °F - 14.0 °F 21% 29.78 in 10.0 mi SW 18.4 mph 25.3 mph N/A   Clear
3:54 PM 52.0 °F - 12.0 °F 20% 29.76 in 10.0 mi SW 19.6 mph 31.1 mph N/A   Clear
4:54 PM 48.9 °F - 14.0 °F 25% 29.78 in 10.0 mi SSW 19.6 mph 25.3 mph N/A   Clear
5:54 PM 45.0 °F 38.9 °F 15.1 °F 30% 29.79 in 10.0 mi SSW 12.7 mph 18.4 mph N/A   Clear
6:54 PM 44.1 °F 38.1 °F 16.0 °F 32% 29.76 in 10.0 mi SSW 11.5 mph - N/A   Clear
7:54 PM 44.1 °F 36.2 °F 19.0 °F 37% 29.76 in 10.0 mi SSW 18.4 mph 29.9 mph N/A   Clear
8:54 PM 37.0 °F 27.0 °F 28.0 °F 70% 29.75 in 10.0 mi SSW 18.4 mph 27.6 mph N/A   Clear
9:54 PM 36.0 °F 27.5 °F 27.0 °F 70% 29.70 in 10.0 mi South 12.7 mph 23.0 mph N/A   Partly Cloudy
10:54 PM 33.1 °F 26.9 °F 25.0 °F 72% 29.69 in 10.0 mi South 6.9 mph - N/A   Clear
11:54 PM 39.0 °F 29.3 °F 21.9 °F 50% 29.64 in 10.0 mi SSW 19.6 mph 31.1 mph N/A   Clear